Wetterdaten: Dienstag, 15.05.2012
Datum Zeit Temperatur Luftfeuchte Regen Wind Richtung Richtung Taupunkt Windchill Windben
15.05.2012 00:00 1,5 C 78 % 0,0 l/m 0,0 km/h (0 Bft) O-SO 112 -1,9 C 0,5 C 0,0 km/h (0 Bft)
15.05.2012 00:05 1,6 C 78 % 0,0 l/m 0,2 km/h (0 Bft) O 90 -1,8 C 0,6 C 0,0 km/h (0 Bft)
15.05.2012 00:10 1,4 C 78 % 0,0 l/m 0,2 km/h (0 Bft) N-NW 337 -2,0 C 0,7 C 0,0 km/h (0 Bft)
15.05.2012 00:15 1,1 C 78 % 0,0 l/m 0,0 km/h (0 Bft) N 360 -2,3 C 0,6 C 0,0 km/h (0 Bft)
15.05.2012 00:20 1,0 C 78 % 0,0 l/m 0,0 km/h (0 Bft) S 180 -2,4 C 0,4 C 0,0 km/h (0 Bft)
15.05.2012 00:25 0,8 C 79 % 0,0 l/m 0,0 km/h (0 Bft) S-SO 157 -2,4 C 0,3 C 0,0 km/h (0 Bft)
15.05.2012 00:30 1,1 C 79 % 0,0 l/m 0,0 km/h (0 Bft) N 360 -2,1 C 0,2 C 0,0 km/h (0 Bft)
15.05.2012 00:35 0,9 C 80 % 0,0 l/m 0,0 km/h (0 Bft) W 270 -2,2 C 0,1 C 0,0 km/h (0 Bft)
15.05.2012 00:40 0,7 C 80 % 0,0 l/m 0,0 km/h (0 Bft) W-SW 247 -2,3 C 0,1 C 0,0 km/h (0 Bft)
15.05.2012 00:45 0,6 C 80 % 0,0 l/m 0,0 km/h (0 Bft) W-SW 247 -2,4 C 0,0 C 0,0 km/h (0 Bft)
15.05.2012 00:50 0,8 C 81 % 0,0 l/m 0,0 km/h (0 Bft) N-NO 22 -2,1 C -0,2 C 0,0 km/h (0 Bft)
15.05.2012 00:55 0,9 C 82 % 0,0 l/m 0,0 km/h (0 Bft) N-NO 22 -1,8 C -0,3 C 0,0 km/h (0 Bft)
15.05.2012 01:00 1,0 C 82 % 0,0 l/m 0,0 km/h (0 Bft) N-NO 22 -1,7 C -0,4 C 0,0 km/h (0 Bft)
15.05.2012 01:05 1,0 C 83 % 0,0 l/m 0,0 km/h (0 Bft) N-NO 22 -1,6 C -0,4 C 0,0 km/h (0 Bft)
15.05.2012 01:10 0,8 C 82 % 0,0 l/m 0,0 km/h (0 Bft) S 180 -1,9 C -0,4 C 0,0 km/h (0 Bft)
15.05.2012 01:15 0,9 C 83 % 0,0 l/m 0,0 km/h (0 Bft) S 180 -1,7 C -0,4 C 0,0 km/h (0 Bft)
15.05.2012 01:20 0,6 C 83 % 0,0 l/m 0,0 km/h (0 Bft) S-SW 202 -1,9 C -0,5 C 0,0 km/h (0 Bft)
15.05.2012 01:25 0,4 C 83 % 0,0 l/m 0,0 km/h (0 Bft) W 270 -2,1 C -0,6 C 0,0 km/h (0 Bft)
15.05.2012 01:30 0,5 C 83 % 0,0 l/m 0,0 km/h (0 Bft) W 270 -2,0 C -0,6 C 0,0 km/h (0 Bft)
15.05.2012 01:35 0,5 C 84 % 0,0 l/m 0,0 km/h (0 Bft) N-NW 337 -1,9 C -0,8 C 0,0 km/h (0 Bft)
15.05.2012 01:40 0,3 C 84 % 0,0 l/m 0,0 km/h (0 Bft) W 270 -2,1 C -0,8 C 0,0 km/h (0 Bft)
15.05.2012 01:45 0,4 C 85 % 0,0 l/m 0,0 km/h (0 Bft) N-NW 337 -1,8 C -0,9 C 0,0 km/h (0 Bft)
15.05.2012 01:50 0,2 C 84 % 0,0 l/m 0,0 km/h (0 Bft) N-NW 337 -2,2 C -0,8 C 0,0 km/h (0 Bft)
15.05.2012 01:55 0,1 C 84 % 0,0 l/m 0,0 km/h (0 Bft) N 360 -2,3 C -0,9 C 0,0 km/h (0 Bft)
15.05.2012 02:00 0,2 C 85 % 0,0 l/m 0,0 km/h (0 Bft) N 360 -2,0 C -1,1 C 1,6 km/h (1 Bft)
15.05.2012 02:05 0,2 C 85 % 0,0 l/m 0,0 km/h (0 Bft) S-SO 157 -2,0 C -0,9 C 0,0 km/h (0 Bft)
15.05.2012 02:10 0,1 C 85 % 0,0 l/m 0,0 km/h (0 Bft) O-SO 112 -2,1 C -0,9 C 0,0 km/h (0 Bft)
15.05.2012 02:15 0,1 C 85 % 0,0 l/m 0,0 km/h (0 Bft) N-NO 22 -2,1 C -1,0 C 0,0 km/h (0 Bft)
15.05.2012 02:20 0,1 C 85 % 0,0 l/m 0,0 km/h (0 Bft) N-NO 22 -2,1 C -0,8 C 0,0 km/h (0 Bft)
15.05.2012 02:25 0,3 C 85 % 0,0 l/m 0,0 km/h (0 Bft) W-NW 292 -1,9 C -0,7 C 2,1 km/h (1 Bft)
15.05.2012 02:30 0,7 C 86 % 0,0 l/m 0,2 km/h (0 Bft) NO 45 -1,4 C -0,5 C 0,0 km/h (0 Bft)
15.05.2012 02:35 0,5 C 85 % 0,0 l/m 0,2 km/h (0 Bft) SO 135 -1,7 C -0,4 C 0,0 km/h (0 Bft)
15.05.2012 02:40 0,4 C 85 % 0,0 l/m 0,0 km/h (0 Bft) W-NW 292 -1,8 C -0,4 C 0,0 km/h (0 Bft)
15.05.2012 02:45 0,3 C 85 % 0,0 l/m 0,0 km/h (0 Bft) W-SW 247 -1,9 C -0,4 C 0,0 km/h (0 Bft)
15.05.2012 02:50 0,1 C 85 % 0,0 l/m 0,0 km/h (0 Bft) S-SO 157 -2,1 C -0,5 C 0,0 km/h (0 Bft)
15.05.2012 02:55 0,2 C 85 % 0,0 l/m 0,0 km/h (0 Bft) O-SO 112 -2,0 C -0,6 C 0,0 km/h (0 Bft)
15.05.2012 03:00 0,0 C 85 % 0,0 l/m 0,0 km/h (0 Bft) W-NW 292 -2,2 C -0,8 C 0,0 km/h (0 Bft)
15.05.2012 03:05 0,0 C 85 % 0,0 l/m 0,0 km/h (0 Bft) NW 315 -2,2 C -0,9 C 1,6 km/h (1 Bft)
15.05.2012 03:10 -0,2 C 85 % 0,0 l/m 0,0 km/h (0 Bft) N-NW 337 -2,4 C -0,9 C 0,0 km/h (0 Bft)
15.05.2012 03:15 -0,1 C 85 % 0,0 l/m 0,0 km/h (0 Bft) N-NO 22 -2,3 C -1,0 C 0,0 km/h (0 Bft)
15.05.2012 03:20 -0,2 C 85 % 0,0 l/m 0,0 km/h (0 Bft) N-NW 337 -2,4 C -1,0 C 0,0 km/h (0 Bft)
15.05.2012 03:25 -0,1 C 86 % 0,0 l/m 0,0 km/h (0 Bft) W-SW 247 -2,2 C -0,9 C 0,0 km/h (0 Bft)
15.05.2012 03:30 -0,1 C 86 % 0,0 l/m 0,0 km/h (0 Bft) N-NW 337 -2,2 C -0,9 C 0,0 km/h (0 Bft)
15.05.2012 03:35 0,0 C 86 % 0,0 l/m 0,0 km/h (0 Bft) S-SW 202 -2,1 C -0,9 C 0,0 km/h (0 Bft)
15.05.2012 03:40 0,0 C 86 % 0,0 l/m 0,0 km/h (0 Bft) S 180 -2,1 C -0,9 C 0,0 km/h (0 Bft)
15.05.2012 03:45 -0,1 C 86 % 0,0 l/m 0,0 km/h (0 Bft) S-SW 202 -2,2 C -1,0 C 0,0 km/h (0 Bft)
15.05.2012 03:50 0,1 C 86 % 0,0 l/m 0,0 km/h (0 Bft) NW 315 -2,0 C -0,9 C 0,0 km/h (0 Bft)
15.05.2012 03:55 0,2 C 87 % 0,0 l/m 0,0 km/h (0 Bft) N-NW 337 -1,7 C -0,8 C 0,0 km/h (0 Bft)
15.05.2012 04:00 0,3 C 87 % 0,0 l/m 0,0 km/h (0 Bft) N 360 -1,6 C -0,7 C 0,0 km/h (0 Bft)
15.05.2012 04:05 0,3 C 87 % 0,0 l/m 0,0 km/h (0 Bft) S-SW 202 -1,6 C -0,7 C 0,0 km/h (0 Bft)
15.05.2012 04:10 0,2 C 87 % 0,0 l/m 0,0 km/h (0 Bft) W-NW 292 -1,7 C -0,8 C 0,0 km/h (0 Bft)
15.05.2012 04:15 0,3 C 87 % 0,0 l/m 0,0 km/h (0 Bft) N-NW 337 -1,6 C -0,8 C 0,0 km/h (0 Bft)
15.05.2012 04:20 0,2 C 87 % 0,0 l/m 0,0 km/h (0 Bft) W-NW 292 -1,7 C -0,8 C 0,0 km/h (0 Bft)
15.05.2012 04:25 0,2 C 87 % 0,0 l/m 0,2 km/h (0 Bft) N 360 -1,7 C -0,9 C 0,0 km/h (0 Bft)
15.05.2012 04:30 0,1 C 87 % 0,0 l/m 0,2 km/h (0 Bft) N 360 -1,8 C -1,0 C 0,0 km/h (0 Bft)
15.05.2012 04:35 -0,1 C 87 % 0,0 l/m 0,0 km/h (0 Bft) N 360 -2,0 C -1,1 C 0,0 km/h (0 Bft)
15.05.2012 04:40 -0,4 C 87 % 0,0 l/m 0,0 km/h (0 Bft) O-SO 112 -2,3 C -1,3 C 0,0 km/h (0 Bft)
15.05.2012 04:45 -0,3 C 87 % 0,0 l/m 0,0 km/h (0 Bft) O-SO 112 -2,2 C -1,4 C 0,0 km/h (0 Bft)
15.05.2012 04:50 -0,5 C 86 % 0,0 l/m 0,0 km/h (0 Bft) S 180 -2,5 C -1,4 C 0,0 km/h (0 Bft)
15.05.2012 04:55 -0,5 C 87 % 0,0 l/m 0,0 km/h (0 Bft) W 270 -2,4 C -1,5 C 0,0 km/h (0 Bft)
15.05.2012 05:00 -0,6 C 87 % 0,0 l/m 0,0 km/h (0 Bft) N-NW 337 -2,5 C -1,5 C 0,0 km/h (0 Bft)
15.05.2012 05:05 -0,5 C 87 % 0,0 l/m 0,0 km/h (0 Bft) N-NW 337 -2,4 C -1,5 C 0,0 km/h (0 Bft)
15.05.2012 05:10 -0,6 C 87 % 0,0 l/m 0,2 km/h (0 Bft) N-NW 337 -2,5 C -1,5 C 0,0 km/h (0 Bft)
15.05.2012 05:15 -0,7 C 87 % 0,0 l/m 0,0 km/h (0 Bft) NO 45 -2,6 C -1,6 C 0,0 km/h (0 Bft)
15.05.2012 05:20 -0,6 C 87 % 0,0 l/m 0,0 km/h (0 Bft) NO 45 -2,5 C -1,6 C 0,0 km/h (0 Bft)
15.05.2012 05:25 -0,7 C 87 % 0,0 l/m 0,0 km/h (0 Bft) N 360 -2,6 C -1,7 C 0,0 km/h (0 Bft)
15.05.2012 05:30 -1,0 C 87 % 0,0 l/m 0,0 km/h (0 Bft) N-NO 22 -2,9 C -1,8 C 0,0 km/h (0 Bft)
15.05.2012 05:35 -0,8 C 87 % 0,0 l/m 0,0 km/h (0 Bft) SO 135 -2,7 C -1,9 C 0,0 km/h (0 Bft)
15.05.2012 05:40 -1,0 C 87 % 0,0 l/m 0,0 km/h (0 Bft) W-SW 247 -2,9 C -1,9 C 0,0 km/h (0 Bft)
15.05.2012 05:45 -0,8 C 88 % 0,0 l/m 0,0 km/h (0 Bft) N-NO 22 -2,5 C -2,0 C 0,0 km/h (0 Bft)
15.05.2012 05:50 -0,7 C 88 % 0,0 l/m 0,0 km/h (0 Bft) W 270 -2,4 C -1,8 C 0,0 km/h (0 Bft)
15.05.2012 05:55 -0,6 C 88 % 0,0 l/m 0,0 km/h (0 Bft) N-NW 337 -2,3 C -1,7 C 0,0 km/h (0 Bft)
15.05.2012 06:00 -0,7 C 88 % 0,0 l/m 0,0 km/h (0 Bft) N-NO 22 -2,4 C -1,5 C 0,0 km/h (0 Bft)
15.05.2012 06:05 -0,5 C 88 % 0,0 l/m 0,2 km/h (0 Bft) W-SW 247 -2,2 C -1,2 C 2,6 km/h (1 Bft)
15.05.2012 06:10 -0,5 C 88 % 0,0 l/m 0,2 km/h (0 Bft) N 360 -2,2 C -1,2 C 0,0 km/h (0 Bft)
15.05.2012 06:15 -0,5 C 88 % 0,0 l/m 0,0 km/h (0 Bft) N-NW 337 -2,2 C -1,2 C 0,0 km/h (0 Bft)
15.05.2012 06:20 -0,4 C 88 % 0,0 l/m 0,0 km/h (0 Bft) NW 315 -2,1 C -1,3 C 0,0 km/h (0 Bft)
15.05.2012 06:25 -0,4 C 88 % 0,0 l/m 0,0 km/h (0 Bft) N 360 -2,1 C -1,3 C 0,0 km/h (0 Bft)
15.05.2012 06:30 0,0 C 89 % 0,0 l/m 0,0 km/h (0 Bft) W-SW 247 -1,6 C -0,7 C 0,0 km/h (0 Bft)
15.05.2012 06:35 0,7 C 89 % 0,0 l/m 0,2 km/h (0 Bft) N 360 -0,9 C 0,5 C 0,0 km/h (0 Bft)
15.05.2012 06:40 3,4 C 88 % 0,0 l/m 0,2 km/h (0 Bft) N-NW 337 1,6 C 2,1 C 0,0 km/h (0 Bft)
15.05.2012 06:45 4,2 C 86 % 0,0 l/m 0,0 km/h (0 Bft) W 270 2,1 C 3,2 C 0,0 km/h (0 Bft)
15.05.2012 06:50 4,7 C 82 % 0,0 l/m 0,2 km/h (0 Bft) S 180 1,9 C 4,6 C 0,0 km/h (0 Bft)
15.05.2012 06:55 6,0 C 80 % 0,0 l/m 0,2 km/h (0 Bft) S-SO 157 2,8 C 5,8 C 0,0 km/h (0 Bft)
15.05.2012 07:00 7,4 C 76 % 0,0 l/m 0,0 km/h (0 Bft) O-SO 112 3,5 C 7,6 C 0,0 km/h (0 Bft)
15.05.2012 07:05 7,2 C 73 % 0,0 l/m 0,0 km/h (0 Bft) N-NW 337 1,9 C 8,4 C 0,0 km/h (0 Bft)
15.05.2012 07:10 8,4 C 73 % 0,0 l/m 0,0 km/h (0 Bft) NO 45 3,0 C 9,6 C 0,0 km/h (0 Bft)
15.05.2012 07:15 8,7 C 73 % 0,0 l/m 0,0 km/h (0 Bft) N-NW 337 2,9 C 10,3 C 0,0 km/h (0 Bft)
15.05.2012 07:20 9,8 C 73 % 0,0 l/m 0,0 km/h (0 Bft) N-NO 22 3,3 C 11,5 C 0,0 km/h (0 Bft)
15.05.2012 07:25 9,3 C 73 % 0,0 l/m 0,0 km/h (0 Bft) SW 225 2,4 C 11,7 C 0,0 km/h (0 Bft)
15.05.2012 07:30 9,8 C 73 % 0,0 l/m 0,0 km/h (0 Bft) N-NW 337 1,7 C 12,3 C 1,6 km/h (1 Bft)
15.05.2012 07:35 10,0 C 73 % 0,0 l/m 0,0 km/h (0 Bft) W-NW 292 1,6 C 12,4 C 0,0 km/h (0 Bft)
15.05.2012 07:40 9,7 C 73 % 0,0 l/m 0,0 km/h (0 Bft) NO 45 1,6 C 12,9 C 0,0 km/h (0 Bft)
15.05.2012 07:45 10,2 C 73 % 0,0 l/m 0,0 km/h (0 Bft) N-NW 337 1,8 C 12,3 C 0,0 km/h (0 Bft)
15.05.2012 07:50 11,8 C 73 % 0,0 l/m 0,0 km/h (0 Bft) O-NO 67 3,6 C 13,6 C 0,0 km/h (0 Bft)
15.05.2012 07:55 13,6 C 73 % 0,0 l/m 0,0 km/h (0 Bft) S-SW 202 5,0 C 14,8 C 0,0 km/h (0 Bft)
15.05.2012 08:00 13,3 C 73 % 0,0 l/m 0,0 km/h (0 Bft) S 180 3,9 C 15,9 C 0,0 km/h (0 Bft)
15.05.2012 08:05 13,4 C 73 % 0,0 l/m 0,0 km/h (0 Bft) N 360 3,2 C 16,5 C 0,0 km/h (0 Bft)
15.05.2012 08:10 14,4 C 73 % 0,0 l/m 0,0 km/h (0 Bft) W-SW 247 4,4 C 17,0 C 0,0 km/h (0 Bft)
15.05.2012 08:15 14,7 C 73 % 0,0 l/m 0,0 km/h (0 Bft) N-NO 22 4,4 C 17,6 C 0,0 km/h (0 Bft)
15.05.2012 08:20 15,2 C 73 % 0,0 l/m 0,0 km/h (0 Bft) NW 315 4,6 C 18,1 C 0,0 km/h (0 Bft)
15.05.2012 08:25 15,4 C 73 % 0,0 l/m 0,0 km/h (0 Bft) NW 315 4,7 C 18,2 C 0,0 km/h (0 Bft)
15.05.2012 08:30 15,9 C 73 % 0,0 l/m 0,0 km/h (0 Bft) W-SW 247 5,2 C 19,1 C 0,0 km/h (0 Bft)
15.05.2012 08:35 16,5 C 73 % 0,0 l/m 0,0 km/h (0 Bft) S-SO 157 5,2 C 19,6 C 0,0 km/h (0 Bft)
15.05.2012 08:40 16,0 C 73 % 0,0 l/m 0,5 km/h (0 Bft) O-SO 112 5,5 C 20,2 C 5,5 km/h (1 Bft)
15.05.2012 08:45 16,0 C 73 % 0,0 l/m 1,4 km/h (1 Bft) SO 135 5,9 C 20,0 C 7,7 km/h (2 Bft)
15.05.2012 08:50 16,3 C 73 % 0,0 l/m 2,9 km/h (1 Bft) O-SO 112 5,3 C 20,0 C 3,4 km/h (1 Bft)
15.05.2012 08:55 16,5 C 73 % 0,0 l/m 3,1 km/h (1 Bft) O 90 4,1 C 20,1 C 13,8 km/h (3 Bft)
15.05.2012 09:00 16,4 C 73 % 0,0 l/m 4,8 km/h (1 Bft) O-NO 67 3,6 C 18,9 C 4,5 km/h (1 Bft)
15.05.2012 09:05 16,5 C 73 % 0,0 l/m 6,3 km/h (2 Bft) O 90 3,3 C 18,6 C 14,2 km/h (3 Bft)
15.05.2012 09:10 16,7 C 73 % 0,0 l/m 6,9 km/h (2 Bft) O-SO 112 2,6 C 17,9 C 11,7 km/h (2 Bft)
15.05.2012 09:15 16,7 C 73 % 0,0 l/m 7,9 km/h (2 Bft) O-SO 112 1,9 C 16,9 C 16,4 km/h (3 Bft)
15.05.2012 09:20 16,8 C 73 % 0,0 l/m 8,9 km/h (2 Bft) W-SW 247 1,5 C 16,0 C 7,6 km/h (2 Bft)
15.05.2012 09:25 16,9 C 73 % 0,0 l/m 6,8 km/h (2 Bft) NW 315 2,6 C 17,5 C 9,7 km/h (2 Bft)
15.05.2012 09:30 17,3 C 73 % 0,0 l/m 5,5 km/h (1 Bft) O 90 1,7 C 18,2 C 11,1 km/h (2 Bft)
15.05.2012 09:35 17,2 C 73 % 0,0 l/m 6,9 km/h (2 Bft) S 180 1,5 C 17,8 C 9,2 km/h (2 Bft)
15.05.2012 09:40 17,4 C 73 % 0,0 l/m 9,3 km/h (2 Bft) S 180 1,3 C 16,3 C 12,9 km/h (3 Bft)
15.05.2012 09:45 17,5 C 73 % 0,0 l/m 10,5 km/h (2 Bft) S-SO 157 0,8 C 15,5 C 18,5 km/h (3 Bft)
15.05.2012 09:50 17,5 C 73 % 0,0 l/m 9,7 km/h (2 Bft) SO 135 1,3 C 15,7 C 5,5 km/h (1 Bft)
15.05.2012 09:55 17,7 C 73 % 0,0 l/m 8,5 km/h (2 Bft) SO 135 2,1 C 16,7 C 18,8 km/h (3 Bft)
15.05.2012 10:00 17,7 C 73 % 0,0 l/m 8,4 km/h (2 Bft) SO 135 2,5 C 16,9 C 14,8 km/h (3 Bft)
15.05.2012 10:05 17,9 C 73 % 0,0 l/m 8,9 km/h (2 Bft) SO 135 2,3 C 16,5 C 11,3 km/h (2 Bft)
15.05.2012 10:10 18,3 C 73 % 0,0 l/m 8,5 km/h (2 Bft) O-SO 112 3,0 C 16,8 C 6,4 km/h (2 Bft)
15.05.2012 10:15 18,7 C 73 % 0,0 l/m 7,4 km/h (2 Bft) S 180 2,7 C 17,8 C 4,2 km/h (1 Bft)
15.05.2012 10:20 19,2 C 73 % 0,0 l/m 5,5 km/h (1 Bft) SO 135 4,5 C 19,1 C 4,8 km/h (1 Bft)
15.05.2012 10:25 19,8 C 73 % 0,0 l/m 5,1 km/h (1 Bft) SO 135 3,3 C 19,7 C 11,4 km/h (2 Bft)
15.05.2012 10:30 18,4 C 73 % 0,0 l/m 6,9 km/h (2 Bft) SO 135 1,8 C 18,4 C 6,9 km/h (2 Bft)
15.05.2012 10:35 19,1 C 73 % 0,0 l/m 7,9 km/h (2 Bft) S 180 2,1 C 17,6 C 8,4 km/h (2 Bft)
15.05.2012 10:40 18,9 C 73 % 0,0 l/m 8,5 km/h (2 Bft) SO 135 1,4 C 17,0 C 13,7 km/h (3 Bft)
15.05.2012 10:45 19,0 C 73 % 0,0 l/m 8,0 km/h (2 Bft) O-SO 112 1,5 C 17,1 C 11,4 km/h (2 Bft)
15.05.2012 10:50 18,9 C 73 % 0,0 l/m 8,2 km/h (2 Bft) O-SO 112 1,4 C 17,2 C 9,7 km/h (2 Bft)
15.05.2012 10:55 18,6 C 73 % 0,0 l/m 8,9 km/h (2 Bft) O 90 1,1 C 16,8 C 20,3 km/h (4 Bft)
15.05.2012 11:00 17,9 C 73 % 0,0 l/m 10,0 km/h (2 Bft) SO 135 0,5 C 15,7 C 10,3 km/h (2 Bft)
15.05.2012 11:05 18,8 C 73 % 0,0 l/m 10,1 km/h (2 Bft) SO 135 0,9 C 16,0 C 21,1 km/h (4 Bft)
15.05.2012 11:10 18,3 C 73 % 0,0 l/m 10,9 km/h (2 Bft) O-SO 112 0,4 C 15,8 C 13,7 km/h (3 Bft)
15.05.2012 11:15 18,0 C 73 % 0,0 l/m 11,9 km/h (2 Bft) S 180 0,6 C 15,0 C 24,0 km/h (4 Bft)
15.05.2012 11:20 16,8 C 73 % 0,0 l/m 12,6 km/h (3 Bft) SO 135 0,4 C 13,0 C 23,2 km/h (4 Bft)
15.05.2012 11:25 16,5 C 73 % 0,0 l/m 12,4 km/h (3 Bft) S-SO 157 0,2 C 13,3 C 15,4 km/h (3 Bft)
15.05.2012 11:30 17,2 C 73 % 0,0 l/m 11,4 km/h (2 Bft) S 180 0,8 C 14,1 C 15,4 km/h (3 Bft)
15.05.2012 11:35 17,7 C 73 % 0,0 l/m 11,6 km/h (2 Bft) SO 135 1,2 C 13,7 C 16,4 km/h (3 Bft)
15.05.2012 11:40 18,0 C 73 % 0,0 l/m 11,9 km/h (2 Bft) O-SO 112 1,5 C 14,5 C 14,5 km/h (3 Bft)
15.05.2012 11:45 18,0 C 73 % 0,0 l/m 12,4 km/h (3 Bft) S 180 1,5 C 14,3 C 27,2 km/h (4 Bft)
15.05.2012 11:50 18,0 C 73 % 0,0 l/m 12,6 km/h (3 Bft) O-SO 112 1,5 C 14,3 C 15,4 km/h (3 Bft)
15.05.2012 11:55 17,5 C 73 % 0,0 l/m 11,9 km/h (2 Bft) O 90 1,1 C 14,3 C 12,1 km/h (2 Bft)
15.05.2012 12:00 18,2 C 73 % 0,0 l/m 12,1 km/h (2 Bft) O-SO 112 1,7 C 13,8 C 24,6 km/h (4 Bft)
15.05.2012 12:05 18,6 C 73 % 0,0 l/m 12,4 km/h (3 Bft) SO 135 1,6 C 13,7 C 19,3 km/h (3 Bft)
15.05.2012 12:10 17,9 C 73 % 0,0 l/m 13,8 km/h (3 Bft) O-SO 112 1,0 C 12,6 C 21,4 km/h (4 Bft)
15.05.2012 12:15 18,4 C 73 % 0,0 l/m 13,4 km/h (3 Bft) O 90 1,4 C 12,7 C 11,9 km/h (2 Bft)
15.05.2012 12:20 17,8 C 73 % 0,0 l/m 12,2 km/h (2 Bft) SO 135 1,3 C 13,2 C 15,9 km/h (3 Bft)
15.05.2012 12:25 17,8 C 73 % 0,0 l/m 10,3 km/h (2 Bft) SO 135 1,3 C 13,9 C 9,5 km/h (2 Bft)
15.05.2012 12:30 18,5 C 73 % 0,0 l/m 9,2 km/h (2 Bft) S-SO 157 2,3 C 14,1 C 6,8 km/h (2 Bft)
15.05.2012 12:35 18,3 C 73 % 0,0 l/m 9,8 km/h (2 Bft) S-SO 157 0,9 C 14,0 C 21,1 km/h (4 Bft)
15.05.2012 12:40 18,2 C 73 % 0,0 l/m 11,7 km/h (2 Bft) O-SO 112 1,2 C 12,7 C 16,7 km/h (3 Bft)
15.05.2012 12:45 18,3 C 73 % 0,0 l/m 12,6 km/h (3 Bft) NO 45 0,9 C 12,2 C 15,1 km/h (3 Bft)
15.05.2012 12:50 18,3 C 73 % 0,0 l/m 12,1 km/h (2 Bft) SO 135 0,9 C 12,3 C 18,8 km/h (3 Bft)
15.05.2012 12:55 18,0 C 73 % 0,0 l/m 12,6 km/h (3 Bft) SO 135 0,6 C 11,8 C 19,0 km/h (3 Bft)
15.05.2012 13:00 18,2 C 73 % 0,0 l/m 11,4 km/h (2 Bft) O 90 1,2 C 12,4 C 8,4 km/h (2 Bft)
15.05.2012 13:05 18,8 C 73 % 0,0 l/m 9,3 km/h (2 Bft) S 180 1,8 C 14,1 C 9,5 km/h (2 Bft)
15.05.2012 13:10 18,9 C 73 % 0,0 l/m 7,7 km/h (2 Bft) S-SO 157 1,8 C 15,7 C 13,2 km/h (3 Bft)
15.05.2012 13:15 18,4 C 73 % 0,0 l/m 8,5 km/h (2 Bft) S-SO 157 1,8 C 15,5 C 12,9 km/h (3 Bft)
15.05.2012 13:20 17,1 C 73 % 0,0 l/m 10,6 km/h (2 Bft) O 90 0,3 C 13,7 C 14,2 km/h (3 Bft)
15.05.2012 13:25 17,3 C 73 % 0,0 l/m 11,3 km/h (2 Bft) O-SO 112 0,9 C 13,5 C 22,7 km/h (4 Bft)
15.05.2012 13:30 18,3 C 73 % 0,0 l/m 11,4 km/h (2 Bft) O 90 1,3 C 14,2 C 16,3 km/h (3 Bft)
15.05.2012 13:35 17,9 C 73 % 0,0 l/m 11,4 km/h (2 Bft) S 180 1,0 C 14,4 C 10,6 km/h (2 Bft)
15.05.2012 13:40 17,5 C 73 % 0,0 l/m 11,4 km/h (2 Bft) S-SO 157 0,6 C 14,4 C 12,2 km/h (2 Bft)
15.05.2012 13:45 18,2 C 73 % 0,0 l/m 10,1 km/h (2 Bft) S 180 1,7 C 15,4 C 10,6 km/h (2 Bft)
15.05.2012 13:50 16,9 C 73 % 0,0 l/m 9,2 km/h (2 Bft) S 180 0,5 C 16,0 C 8,5 km/h (2 Bft)
15.05.2012 13:55 17,2 C 73 % 0,0 l/m 10,1 km/h (2 Bft) S-SO 157 1,6 C 15,1 C 13,4 km/h (3 Bft)
15.05.2012 14:00 18,2 C 73 % 0,0 l/m 9,7 km/h (2 Bft) SO 135 1,7 C 16,1 C 15,0 km/h (3 Bft)
15.05.2012 14:05 18,3 C 73 % 0,0 l/m 10,1 km/h (2 Bft) SO 135 1,3 C 16,3 C 6,4 km/h (2 Bft)
15.05.2012 14:10 18,0 C 73 % 0,0 l/m 11,1 km/h (2 Bft) O-SO 112 1,1 C 16,1 C 16,7 km/h (3 Bft)
15.05.2012 14:15 18,5 C 73 % 0,0 l/m 9,7 km/h (2 Bft) O-SO 112 1,9 C 16,9 C 8,2 km/h (2 Bft)
15.05.2012 14:20 18,3 C 73 % 0,0 l/m 10,5 km/h (2 Bft) SO 135 1,8 C 16,6 C 11,1 km/h (2 Bft)
15.05.2012 14:25 18,1 C 73 % 0,0 l/m 10,5 km/h (2 Bft) S-SW 202 1,2 C 16,5 C 8,9 km/h (2 Bft)
15.05.2012 14:30 17,4 C 73 % 0,0 l/m 10,8 km/h (2 Bft) S 180 0,5 C 15,8 C 22,2 km/h (4 Bft)
15.05.2012 14:35 18,4 C 73 % 0,0 l/m 10,5 km/h (2 Bft) SO 135 1,8 C 16,1 C 13,4 km/h (3 Bft)
15.05.2012 14:40 18,0 C 73 % 0,0 l/m 10,3 km/h (2 Bft) SO 135 0,6 C 16,8 C 11,6 km/h (2 Bft)
15.05.2012 14:45 17,3 C 73 % 0,0 l/m 10,5 km/h (2 Bft) SO 135 0,9 C 16,5 C 10,0 km/h (2 Bft)
15.05.2012 14:50 17,4 C 73 % 0,0 l/m 10,3 km/h (2 Bft) O-SO 112 1,4 C 16,3 C 16,7 km/h (3 Bft)
15.05.2012 14:55 17,5 C 73 % 0,0 l/m 11,6 km/h (2 Bft) S-SW 202 1,1 C 15,6 C 34,3 km/h (5 Bft)
15.05.2012 15:00 16,9 C 73 % 0,0 l/m 13,7 km/h (3 Bft) S-SO 157 0,1 C 14,1 C 12,2 km/h (2 Bft)
15.05.2012 15:05 17,4 C 73 % 0,0 l/m 12,2 km/h (2 Bft) S 180 0,5 C 14,5 C 7,7 km/h (2 Bft)
15.05.2012 15:10 17,9 C 73 % 0,0 l/m 11,7 km/h (2 Bft) SO 135 1,0 C 15,5 C 20,0 km/h (4 Bft)
15.05.2012 15:15 18,2 C 73 % 0,0 l/m 11,4 km/h (2 Bft) S 180 1,2 C 15,7 C 9,0 km/h (2 Bft)
15.05.2012 15:20 18,6 C 73 % 0,0 l/m 9,8 km/h (2 Bft) S 180 1,6 C 16,9 C 8,2 km/h (2 Bft)
15.05.2012 15:25 18,1 C 73 % 0,0 l/m 9,0 km/h (2 Bft) S-SW 202 1,2 C 17,4 C 13,2 km/h (3 Bft)
15.05.2012 15:30 18,8 C 73 % 0,0 l/m 10,3 km/h (2 Bft) S-SO 157 1,3 C 16,9 C 13,5 km/h (3 Bft)
15.05.2012 15:35 19,0 C 73 % 0,0 l/m 10,8 km/h (2 Bft) O-SO 112 1,9 C 16,9 C 12,6 km/h (3 Bft)
15.05.2012 15:40 18,2 C 73 % 0,0 l/m 11,1 km/h (2 Bft) O-SO 112 1,7 C 17,2 C 20,1 km/h (4 Bft)
15.05.2012 15:45 17,2 C 73 % 0,0 l/m 12,6 km/h (3 Bft) SO 135 0,4 C 16,2 C 13,7 km/h (3 Bft)
15.05.2012 15:50 16,8 C 73 % 0,0 l/m 13,8 km/h (3 Bft) SO 135 0,9 C 14,9 C 13,2 km/h (3 Bft)
15.05.2012 15:55 17,3 C 73 % 0,0 l/m 13,0 km/h (3 Bft) SW 225 0,9 C 14,7 C 7,7 km/h (2 Bft)
15.05.2012 16:00 16,3 C 73 % 0,0 l/m 11,6 km/h (2 Bft) O-SO 112 0,8 C 14,9 C 12,4 km/h (3 Bft)
15.05.2012 16:05 16,4 C 73 % 0,0 l/m 10,5 km/h (2 Bft) S 180 1,3 C 15,5 C 14,0 km/h (3 Bft)
15.05.2012 16:10 16,9 C 73 % 0,0 l/m 10,5 km/h (2 Bft) O-SO 112 1,7 C 15,7 C 8,2 km/h (2 Bft)
15.05.2012 16:15 17,0 C 73 % 0,0 l/m 10,6 km/h (2 Bft) S 180 1,8 C 15,9 C 10,3 km/h (2 Bft)
15.05.2012 16:20 16,6 C 73 % 0,0 l/m 10,5 km/h (2 Bft) O 90 1,9 C 16,2 C 10,5 km/h (2 Bft)
15.05.2012 16:25 15,6 C 73 % 0,0 l/m 11,9 km/h (2 Bft) SO 135 1,3 C 14,5 C 10,3 km/h (2 Bft)
15.05.2012 16:30 15,4 C 73 % 0,0 l/m 11,6 km/h (2 Bft) SO 135 2,2 C 13,5 C 9,8 km/h (2 Bft)
15.05.2012 16:35 15,1 C 73 % 0,0 l/m 11,3 km/h (2 Bft) S-SO 157 2,0 C 13,1 C 12,2 km/h (2 Bft)
15.05.2012 16:40 15,2 C 73 % 0,0 l/m 11,1 km/h (2 Bft) O-SO 112 2,7 C 12,8 C 24,5 km/h (4 Bft)
15.05.2012 16:45 15,2 C 73 % 0,0 l/m 10,0 km/h (2 Bft) S-SO 157 3,0 C 13,2 C 11,1 km/h (2 Bft)
15.05.2012 16:50 14,7 C 73 % 0,0 l/m 12,4 km/h (3 Bft) SO 135 2,3 C 11,4 C 19,2 km/h (3 Bft)
15.05.2012 16:55 14,6 C 73 % 0,0 l/m 12,7 km/h (3 Bft) S 180 2,8 C 11,1 C 11,7 km/h (2 Bft)
15.05.2012 17:00 14,3 C 73 % 0,0 l/m 14,8 km/h (3 Bft) O-NO 67 1,9 C 9,7 C 23,5 km/h (4 Bft)
15.05.2012 17:05 13,9 C 73 % 0,0 l/m 15,4 km/h (3 Bft) S 180 1,9 C 9,0 C 19,0 km/h (3 Bft)
15.05.2012 17:10 12,4 C 73 % 0,0 l/m 17,7 km/h (3 Bft) O-SO 112 3,4 C 6,2 C 30,6 km/h (5 Bft)
15.05.2012 17:15 11,9 C 73 % 0,0 l/m 20,1 km/h (4 Bft) S 180 3,4 C 3,9 C 14,0 km/h (3 Bft)
15.05.2012 17:20 12,2 C 73 % 0,0 l/m 17,4 km/h (3 Bft) SO 135 3,9 C 5,9 C 21,9 km/h (4 Bft)
15.05.2012 17:25 11,6 C 73 % 0,0 l/m 14,5 km/h (3 Bft) O-SO 112 3,6 C 6,8 C 11,6 km/h (2 Bft)
15.05.2012 17:30 11,5 C 73 % 0,0 l/m 11,3 km/h (2 Bft) O-SO 112 3,5 C 7,9 C 12,2 km/h (2 Bft)
15.05.2012 17:35 10,8 C 73 % 0,0 l/m 9,3 km/h (2 Bft) S-SO 157 3,4 C 8,4 C 11,6 km/h (2 Bft)
15.05.2012 17:40 10,3 C 73 % 0,0 l/m 9,7 km/h (2 Bft) O-SO 112 3,3 C 7,1 C 10,0 km/h (2 Bft)
15.05.2012 17:45 10,0 C 73 % 0,0 l/m 9,7 km/h (2 Bft) O 90 3,1 C 6,5 C 15,1 km/h (3 Bft)
15.05.2012 17:50 9,6 C 73 % 0,0 l/m 9,3 km/h (2 Bft) S-SO 157 3,1 C 6,3 C 13,7 km/h (3 Bft)
15.05.2012 17:55 9,4 C 73 % 0,0 l/m 8,4 km/h (2 Bft) O 90 3,2 C 6,7 C 17,5 km/h (3 Bft)
15.05.2012 18:00 9,2 C 73 % 0,0 l/m 9,5 km/h (2 Bft) S 180 3,4 C 5,4 C 7,6 km/h (2 Bft)
15.05.2012 18:05 9,1 C 73 % 0,0 l/m 10,1 km/h (2 Bft) S 180 3,5 C 4,7 C 12,7 km/h (3 Bft)
15.05.2012 18:10 8,8 C 73 % 0,0 l/m 9,0 km/h (2 Bft) SO 135 3,8 C 5,2 C 9,7 km/h (2 Bft)
15.05.2012 18:15 8,4 C 73 % 0,0 l/m 9,5 km/h (2 Bft) O-SO 112 3,8 C 4,2 C 13,7 km/h (3 Bft)
15.05.2012 18:20 7,9 C 76 % 0,0 l/m 10,1 km/h (2 Bft) S-SO 157 3,9 C 2,6 C 11,7 km/h (2 Bft)
15.05.2012 18:25 7,6 C 78 % 0,0 l/m 10,3 km/h (2 Bft) SO 135 4,0 C 1,9 C 9,5 km/h (2 Bft)
15.05.2012 18:30 7,4 C 80 % 0,7 l/m 9,0 km/h (2 Bft) O-SO 112 4,2 C 2,6 C 9,3 km/h (2 Bft)
15.05.2012 18:35 7,2 C 80 % 0,0 l/m 8,9 km/h (2 Bft) SO 135 4,0 C 2,6 C 10,0 km/h (2 Bft)
15.05.2012 18:40 7,0 C 82 % 0,0 l/m 10,0 km/h (2 Bft) O-SO 112 4,1 C 1,3 C 17,7 km/h (3 Bft)
15.05.2012 18:45 6,9 C 83 % 0,7 l/m 9,2 km/h (2 Bft) S-SO 157 4,2 C 2,0 C 7,7 km/h (2 Bft)
15.05.2012 18:50 6,8 C 85 % 0,0 l/m 9,3 km/h (2 Bft) O 90 4,5 C 1,8 C 12,2 km/h (2 Bft)
15.05.2012 18:55 6,6 C 85 % 0,7 l/m 9,0 km/h (2 Bft) NO 45 4,3 C 2,1 C 8,4 km/h (2 Bft)
15.05.2012 19:00 6,5 C 86 % 0,0 l/m 9,7 km/h (2 Bft) SO 135 4,3 C 1,3 C 9,7 km/h (2 Bft)
15.05.2012 19:05 6,4 C 87 % 0,7 l/m 9,7 km/h (2 Bft) O-SO 112 4,4 C 1,1 C 16,9 km/h (3 Bft)
15.05.2012 19:10 6,2 C 87 % 0,7 l/m 11,6 km/h (2 Bft) SO 135 4,2 C -0,8 C 14,8 km/h (3 Bft)
15.05.2012 19:15 6,1 C 87 % 0,0 l/m 12,2 km/h (2 Bft) SO 135 4,1 C -1,4 C 13,4 km/h (3 Bft)
15.05.2012 19:20 4,6 C 86 % 2,1 l/m 13,0 km/h (3 Bft) O-SO 112 2,5 C -3,1 C 9,5 km/h (2 Bft)
15.05.2012 19:25 4,6 C 87 % 0,0 l/m 12,9 km/h (3 Bft) O-NO 67 2,6 C -4,1 C 16,9 km/h (3 Bft)
15.05.2012 19:30 4,9 C 88 % 0,7 l/m 11,3 km/h (2 Bft) O-SO 112 3,1 C -2,6 C 13,2 km/h (3 Bft)
15.05.2012 19:35 4,9 C 89 % 0,0 l/m 10,5 km/h (2 Bft) S-SO 157 3,2 C -1,8 C 13,5 km/h (3 Bft)
15.05.2012 19:40 5,0 C 89 % 0,0 l/m 7,7 km/h (2 Bft) O-SO 112 3,3 C 1,4 C 14,8 km/h (3 Bft)
15.05.2012 19:45 4,9 C 89 % 0,7 l/m 8,7 km/h (2 Bft) O-SO 112 3,2 C 0,3 C 19,5 km/h (3 Bft)
15.05.2012 19:50 4,8 C 89 % 0,0 l/m 9,8 km/h (2 Bft) O-NO 67 3,1 C -1,1 C 9,8 km/h (2 Bft)
15.05.2012 19:55 4,7 C 89 % 0,0 l/m 10,3 km/h (2 Bft) O-SO 112 3,0 C -1,6 C 20,4 km/h (4 Bft)
15.05.2012 20:00 4,6 C 89 % 0,0 l/m 9,2 km/h (2 Bft) O 90 2,9 C -0,6 C 6,1 km/h (2 Bft)
15.05.2012 20:05 4,6 C 89 % 0,0 l/m 9,2 km/h (2 Bft) S 180 2,9 C -0,6 C 10,3 km/h (2 Bft)
15.05.2012 20:10 4,5 C 89 % 0,7 l/m 7,4 km/h (2 Bft) O-SO 112 2,8 C 1,4 C 11,4 km/h (2 Bft)
15.05.2012 20:15 4,5 C 89 % 0,0 l/m 6,0 km/h (2 Bft) O-SO 112 2,8 C 2,8 C 3,2 km/h (1 Bft)
15.05.2012 20:20 4,5 C 89 % 0,0 l/m 5,1 km/h (1 Bft) O 90 2,8 C 3,2 C 8,7 km/h (2 Bft)
15.05.2012 20:25 4,6 C 90 % 0,0 l/m 6,1 km/h (2 Bft) SO 135 3,1 C 2,8 C 5,0 km/h (1 Bft)
15.05.2012 20:30 4,6 C 90 % 0,0 l/m 5,6 km/h (1 Bft) O-NO 67 3,1 C 3,0 C 4,5 km/h (1 Bft)
15.05.2012 20:35 4,5 C 90 % 0,0 l/m 4,7 km/h (1 Bft) O-SO 112 3,0 C 3,4 C 6,9 km/h (2 Bft)
15.05.2012 20:40 4,5 C 90 % 0,0 l/m 5,0 km/h (1 Bft) O-SO 112 3,0 C 3,4 C 4,5 km/h (1 Bft)
15.05.2012 20:45 4,5 C 90 % 0,0 l/m 4,2 km/h (1 Bft) O-NO 67 3,0 C 3,7 C 2,6 km/h (1 Bft)
15.05.2012 20:50 4,5 C 89 % 0,0 l/m 1,8 km/h (1 Bft) S 180 2,8 C 4,4 C 0,0 km/h (0 Bft)
15.05.2012 20:55 4,6 C 89 % 0,0 l/m 1,8 km/h (1 Bft) S 180 2,9 C 4,3 C 4,5 km/h (1 Bft)
15.05.2012 21:00 4,6 C 89 % 0,0 l/m 2,4 km/h (1 Bft) S 180 2,9 C 4,2 C 4,0 km/h (1 Bft)
15.05.2012 21:05 4,5 C 89 % 0,0 l/m 1,8 km/h (1 Bft) SO 135 2,8 C 4,3 C 0,0 km/h (0 Bft)
15.05.2012 21:10 4,3 C 89 % 0,0 l/m 1,4 km/h (1 Bft) SO 135 2,7 C 4,2 C 4,3 km/h (1 Bft)
15.05.2012 21:15 4,3 C 89 % 0,7 l/m 2,4 km/h (1 Bft) NO 45 2,7 C 4,0 C 0,0 km/h (0 Bft)
15.05.2012 21:20 4,2 C 90 % 0,7 l/m 3,5 km/h (1 Bft) S 180 2,7 C 3,5 C 6,3 km/h (2 Bft)
15.05.2012 21:25 4,0 C 89 % 0,7 l/m 4,2 km/h (1 Bft) O 90 2,4 C 3,0 C 1,6 km/h (1 Bft)
15.05.2012 21:30 3,8 C 90 % 0,7 l/m 4,0 km/h (1 Bft) S-SO 157 2,3 C 2,8 C 2,9 km/h (1 Bft)
15.05.2012 21:35 3,8 C 90 % 0,0 l/m 3,1 km/h (1 Bft) SO 135 2,3 C 3,3 C 4,2 km/h (1 Bft)
15.05.2012 21:40 3,8 C 90 % 0,0 l/m 2,4 km/h (1 Bft) S-SO 157 2,3 C 3,5 C 2,7 km/h (1 Bft)
15.05.2012 21:45 3,8 C 90 % 0,0 l/m 1,6 km/h (1 Bft) N 360 2,3 C 3,4 C 0,0 km/h (0 Bft)
15.05.2012 21:50 3,8 C 90 % 0,0 l/m 0,3 km/h (0 Bft) O-NO 67 2,3 C 3,5 C 0,0 km/h (0 Bft)
15.05.2012 21:55 3,9 C 90 % 0,0 l/m 0,5 km/h (0 Bft) SO 135 2,4 C 3,5 C 3,1 km/h (1 Bft)
15.05.2012 22:00 3,9 C 90 % 0,7 l/m 1,0 km/h (0 Bft) S 180 2,4 C 3,5 C 0,0 km/h (0 Bft)
15.05.2012 22:05 3,9 C 90 % 0,0 l/m 1,3 km/h (1 Bft) SO 135 2,4 C 3,5 C 1,9 km/h (1 Bft)
15.05.2012 22:10 3,9 C 90 % 0,7 l/m 1,0 km/h (0 Bft) SO 135 2,4 C 3,6 C 0,0 km/h (0 Bft)
15.05.2012 22:15 3,9 C 90 % 0,0 l/m 1,0 km/h (0 Bft) O-SO 112 2,4 C 3,6 C 3,4 km/h (1 Bft)
15.05.2012 22:20 3,9 C 91 % 0,7 l/m 1,8 km/h (1 Bft) S-SO 157 2,6 C 3,6 C 10,1 km/h (2 Bft)
15.05.2012 22:25 3,6 C 90 % 0,0 l/m 3,2 km/h (1 Bft) O-SO 112 2,1 C 3,1 C 4,3 km/h (1 Bft)
15.05.2012 22:30 3,4 C 90 % 0,0 l/m 4,5 km/h (1 Bft) SO 135 1,9 C 2,3 C 5,6 km/h (1 Bft)
15.05.2012 22:35 3,3 C 91 % 0,7 l/m 3,9 km/h (1 Bft) O-NO 67 2,0 C 2,5 C 5,8 km/h (2 Bft)
15.05.2012 22:40 3,3 C 91 % 0,0 l/m 3,9 km/h (1 Bft) O 90 2,0 C 2,2 C 2,1 km/h (1 Bft)
15.05.2012 22:45 3,3 C 91 % 0,0 l/m 3,9 km/h (1 Bft) O 90 2,0 C 2,2 C 3,4 km/h (1 Bft)
15.05.2012 22:50 3,2 C 91 % 0,7 l/m 3,7 km/h (1 Bft) O 90 1,9 C 2,2 C 4,8 km/h (1 Bft)
15.05.2012 22:55 3,1 C 91 % 0,0 l/m 4,0 km/h (1 Bft) O-SO 112 1,8 C 2,0 C 7,7 km/h (2 Bft)
15.05.2012 23:00 3,1 C 91 % 0,7 l/m 3,2 km/h (1 Bft) O 90 1,8 C 2,4 C 1,9 km/h (1 Bft)
15.05.2012 23:05 3,0 C 91 % 0,0 l/m 3,2 km/h (1 Bft) O-SO 112 1,7 C 2,3 C 5,5 km/h (1 Bft)
15.05.2012 23:10 3,1 C 91 % 0,0 l/m 2,4 km/h (1 Bft) O-SO 112 1,8 C 2,6 C 2,6 km/h (1 Bft)
15.05.2012 23:15 3,0 C 91 % 0,0 l/m 1,9 km/h (1 Bft) O-NO 67 1,7 C 2,6 C 4,5 km/h (1 Bft)
15.05.2012 23:20 3,0 C 91 % 0,0 l/m 1,4 km/h (1 Bft) NO 45 1,7 C 2,5 C 2,9 km/h (1 Bft)
15.05.2012 23:25 3,0 C 91 % 0,0 l/m 1,4 km/h (1 Bft) NO 45 1,7 C 2,5 C 2,3 km/h (1 Bft)
15.05.2012 23:30 2,9 C 92 % 0,0 l/m 1,1 km/h (1 Bft) N-NO 22 1,7 C 2,5 C 1,6 km/h (1 Bft)
15.05.2012 23:35 2,9 C 92 % 0,7 l/m 0,6 km/h (0 Bft) NO 45 1,7 C 2,5 C 0,0 km/h (0 Bft)
15.05.2012 23:40 2,9 C 92 % 0,0 l/m 0,8 km/h (0 Bft) O-SO 112 1,7 C 2,5 C 4,3 km/h (1 Bft)
15.05.2012 23:45 2,9 C 92 % 0,0 l/m 0,8 km/h (0 Bft) O-SO 112 1,7 C 2,5 C 1,8 km/h (1 Bft)
15.05.2012 23:50 2,9 C 92 % 0,0 l/m 1,1 km/h (1 Bft) NO 45 1,7 C 2,5 C 2,1 km/h (1 Bft)
15.05.2012 23:55 2,9 C 93 % 0,0 l/m 1,6 km/h (1 Bft) O-SO 112 1,9 C 2,5 C 2,6 km/h (1 Bft)
_ Min-Zeit 05:40 18:15 - 08:35 - - 05:40 19:25 23:35
Minimum _ -1,0 C 73 % - 0,0 km/h (0 Bft) - - -2,9 C -4,1 C 0,0 km/h (0 Bft)
_ Max-Zeit 10:25 23:55 19:20 17:15 - - 08:45 08:40 14:55
Maximum _ 19,8 C 93 % 2,1 l/m 20,1 km/h
S (4 Bft)
- - 5,9 C 20,2 C 34,3 km/h
S-SW (5 Bft)
Durchschnitt _ 8,7 C 80 % #15,1 l/m 5,4 km/h (1 Bft) O-SO - 1,1 C 7,1 C 7,0 km/h (2 Bft)